Preview of NWS' New Version of Forecast
This preview is not operational and should not be used for support decisions.
Latest weather observations around

Houston, Houston Hobby Airport (KHOU)

Using English Units (Switch to International System of Units)
Date/ Time (CST) Wind (mph) Vis. (mi) Weather Sky Cond. Temp (°F) Rel. Humidity Wind Chill (°F) Heat Index (°F) Pressure Precip. (in)
Air Dwpt 6 hour Altimeter (inHg) Sea level (inHg) 1 hr 3 hr 6 hr
Max Min
Jan 18 08:04 Calm 0.75 Fog/Mist OVC002 60 58     93%     30.05        
Jan 18 07:53 SE 3 1 Fog/Mist BKN003 OVC006 59 58     96%     30.06 30.07      
Jan 18 07:37 SE 3 1.5 Fog/Mist OVC003 59 58     96%     30.05        
Jan 18 06:53 Calm 2.5 Fog/Mist OVC003 59 58     96%     30.05 30.06      
Jan 18 06:28 Calm 3 Fog/Mist OVC003 59 58     96%     30.05        
Jan 18 05:53 Calm 1.75 Fog/Mist BKN003 OVC009 59 58     96%     30.05 30.06      
Jan 18 05:37 S 3 1.5 Fog/Mist BKN003 OVC009 59 58     96%     30.05        
Jan 18 05:17 S 6 1.5 Fog/Mist FEW003 OVC010 59 57     93%     30.06        
Jan 18 04:53 S 5 4 Fog/Mist BKN007 OVC010 59 57     93%     30.07 30.08      
Jan 18 03:53 Calm 5 Fog/Mist BKN007 OVC012 60 58     93%     30.09 30.1      
Jan 18 03:09 SW 7 6 Fog/Mist BKN010 OVC022 59 57     93%     30.1        
Jan 18 02:53 SW 8 6 Fog/Mist SCT010 BKN022 OVC250 58 55     90%     30.11 30.12      
Jan 18 02:41 SSW 6 7 Mostly Cloudy BKN022 BKN250 56 54     93%     30.11        
Jan 18 01:53 Calm 9 Fog BKN250 55 54     96%     30.11 30.12      
Jan 18 00:53 SW 5 9 Mostly Cloudy BKN250 56 54     93%     30.12 30.13      
Jan 17 23:53 SW 3 9 Mostly Cloudy BKN250 57 54     89%     30.13 30.15      
Jan 17 22:53 SW 3 8 Cloudy OVC250 57 55     93%     30.13 30.15      
Jan 17 21:53 SW 3 9 Cloudy OVC250 57 55     93%     30.12 30.14      
Jan 17 20:53 Calm 9 Cloudy OVC250 60 56     86%     30.12 30.13      
Jan 17 19:53 Calm 9 Cloudy OVC250 60 56     86%     30.11 30.13      
Jan 17 18:53 WSW 6 9 Mostly Cloudy BKN250 63 57     81%     30.11 30.12      
Jan 17 17:53 WSW 6 9 Mostly Cloudy BKN250 65 57     76%     30.08 30.1      
Jan 17 16:53 WSW 9 10 Mostly Cloudy BKN250 67 57     71%     30.08 30.09      
Jan 17 15:53 WSW 10 10 Mostly Cloudy BKN250 69 57     65%     30.08 30.09      
Jan 17 14:53 WSW 13 10 Mostly Cloudy BKN250 69 56     63%     30.09 30.1      
Jan 17 13:53 SW 11 10 Mostly Cloudy BKN250 68 57     68%     30.11 30.12      
Jan 17 12:53 WSW 14 10 Partly Cloudy FEW015 SCT250 65 56     73%     30.14 30.15      
Jan 17 12:32 WSW 14 10 Partly Cloudy SCT015 SCT250 64 56     75%     30.15        
Jan 17 11:53 WSW 11 10 Mostly Cloudy BKN012 BKN250 64 57     78%     30.18 30.2     0
Jan 17 11:08 WSW 16 10 Cloudy OVC010 62 57     84%     30.19        
Jan 17 10:53 WSW 16 10 Cloudy OVC009 62 58     86%     30.19 30.2      
Jan 17 09:53 WSW 14 10 Cloudy OVC009 61 57     87%     30.2 30.21      
Jan 17 08:53 WSW 16 10 Cloudy OVC007 61 58     90%     30.17 30.19   0  
Jan 17 07:53 WSW 16 4 Fog/Mist OVC006 61 59     93%     30.15 30.16 0    
Jan 17 07:42 WSW 10 6 Fog/Mist OVC006 62 59     90%     30.14   0    
Jan 17 07:13 SW 11 9 Cloudy SCT008 OVC013 62 60     93%     30.13   0    
Jan 17 06:53 SW 9 6 Light Drizzle and Fog/Mist BKN006 OVC012 62 60     93%     30.13 30.14 0    
Jan 17 06:43 SW 9 4 Light Drizzle and Fog/Mist BKN005 OVC010 62 61     96%     30.13   0    
Jan 17 06:19 WSW 7 2.5 Light Drizzle and Fog/Mist OVC006 63 61     93%     30.13   0    
Jan 17 05:53 WSW 8 6 Fog/Mist BKN006 OVC015 63 61     93%     30.12 30.14 0   0
Jan 17 04:53 SSW 7 7 Cloudy OVC004 63 62     97%     30.13 30.14      
Jan 17 04:38 SSW 6 5 Fog/Mist OVC004 63 62     97%     30.13        
Jan 17 03:53 SSW 7 6 Fog/Mist BKN007 OVC013 63 61     93%     30.14 30.15 0    
Jan 17 02:53 S 6 6 Light Rain and Fog/Mist BKN006 OVC013 63 61     93%     30.14 30.15 0 0  
Jan 17 01:53 S 6 6 Light Rain and Fog/Mist BKN005 BKN011 OVC016 63 61     93%     30.15 30.16 0    
Jan 17 00:53 S 8 6 Fog/Mist BKN006 OVC022 62 60     93%     30.15 30.16 0    
Jan 16 23:53 SSE 8 6 Light Rain and Fog/Mist OVC005 62 60     93%     30.17 30.18 0   0
Jan 16 22:53 SSE 9 6 Light Rain and Fog/Mist OVC005 60 59     96%     30.18 30.19 0    
Jan 16 21:53 SE 7 4 Light Rain and Fog/Mist OVC008 59 58     96%     30.19 30.2 0    
Jan 16 20:53 SE 6 6 Fog/Mist FEW008 OVC015 59 57     93%     30.19 30.2 0 0  
Jan 16 19:53 SE 7 6 Fog/Mist FEW008 OVC016 59 56     90%     30.19 30.2      
Jan 16 19:21 ESE 6 4 Fog/Mist SCT008 OVC013 58 56     93%     30.18        
Jan 16 18:53 ESE 8 4 Fog/Mist BKN005 OVC013 58 56     93%     30.18 30.19 0    
Jan 16 17:53 ESE 7 3 Fog/Mist OVC006 58 56     93%     30.19 30.21 0   0
Jan 16 17:50 ESE 6 3 Fog/Mist OVC006 57 55     94%     30.19   0    
Jan 16 17:36 ESE 7 1.75 Light Rain and Fog/Mist OVC006 58 56     93%     30.19   0    
Jan 16 16:53 E 8 3 Fog/Mist OVC005 58 56     93%     30.19 30.21 0    
Jan 16 16:25 E 8 3 Light Rain and Fog/Mist OVC006 58 56     93%     30.2   0    
Jan 16 15:53 E 7 1.75 Light Rain and Fog/Mist BKN006 OVC011 58 56     93%     30.2 30.22 0    
Jan 16 15:11 ESE 7 1.75 Light Rain and Fog/Mist OVC008 58 56     93%     30.21   0    
Jan 16 14:53 ESE 6 2 Light Rain and Fog/Mist BKN008 OVC012 59 56     90%     30.21 30.22 0 0  
Jan 16 14:51 7 2 Light Rain and Fog/Mist BKN008 OVC012 59 55     88%     30.21   0    
Jan 16 14:40 ESE 3 1.75 Light Rain and Fog/Mist BKN008 OVC014 59 56     90%     30.21   0    
Jan 16 14:21 SE 8 1.75 Rain and Fog/Mist OVC015 59 55     87%     30.21   0    
Jan 16 14:11 SSE 10 4 Light Rain OVC015 60 54     80%     30.21   0    
Jan 16 13:53 SE 10 7 Light Rain OVC014 61 54     78%     30.21 30.22 0    
Jan 16 12:53 SE 6 6 Fog/Mist OVC012 59 55     87%     30.24 30.25 0    
Jan 16 12:49 SE 7 7 Cloudy OVC010 59 54     82%     30.24   0    
Jan 16 11:53 SE 10 9 Cloudy BKN018 OVC045 61 53     75%     30.27 30.29      
Jan 16 11:43 SE 7 9 Cloudy BKN018 OVC045 61 53     75%     30.28        
Jan 16 10:53 SE 10 9 Cloudy BKN035 OVC055 60 51     72%     30.29 30.31      
Jan 16 09:53 ESE 11 10 Cloudy SCT030 OVC055 57 49     74%     30.29 30.3      
Jan 16 09:07 E 7 9 Cloudy OVC030 56 49     77%     30.29        
Jan 16 08:53 E 7 10 Cloudy OVC029 56 49     77%     30.29 30.3      
Jan 16 07:53 E 6 10 Cloudy OVC026 54 48     80%     30.27 30.28      
Jan 16 06:53 ESE 5 9 Mostly Cloudy BKN028 BKN100 53 48     83%     30.27 30.28      
Jan 16 06:40 ESE 5 9 Mostly Cloudy BKN028 BKN100 53 47     80%     30.26        
Jan 16 05:53 E 5 10 Mostly Cloudy BKN030 BKN100 52 47     83%     30.25 30.26      
Jan 16 04:53 ENE 3 9 Mostly Cloudy BKN033 BKN110 52 46     80%     30.25 30.26      
Jan 16 03:53 ENE 5 9 Mostly Cloudy BKN032 BKN100 52 46     80%     30.27 30.28      
Jan 16 02:53 E 3 10 Mostly Cloudy BKN032 BKN100 52 45     77%     30.28 30.29      
Jan 16 01:53 SE 5 10 Mostly Cloudy BKN034 BKN100 51 45     79%     30.27 30.29      
Jan 16 00:53 ENE 6 10 Cloudy OVC034 51 44     77%     30.29 30.3      
Jan 15 23:53 3 10 Cloudy FEW045 OVC100 51 44     77%     30.3 30.31 0   0
Jan 15 22:53 SE 5 9 Light Drizzle SCT120 BKN130 OVC250 51 43     74%     30.3 30.31 0    
Jan 15 21:53 SSE 6 9 Light Drizzle FEW055 SCT075 BKN100 OVC250 51 42     71%     30.31 30.32 0    
Jan 15 20:53 ESE 5 9 Cloudy FEW070 BKN120 OVC250 51 41     68%     30.3 30.31      
Jan 15 19:53 E 3 10 Cloudy OVC050 51 41     68%     30.31 30.32      
Jan 15 18:53 SSE 3 10 Cloudy OVC050 52 41     66%     30.31 30.32      
Jan 15 17:53 Calm 9 Cloudy OVC060 52 40     63%     30.29 30.3      
Jan 15 16:53 ESE 3 8 Cloudy OVC060 53 41     63%     30.28 30.29      
Jan 15 15:53 E 6 8 Cloudy OVC060 53 41     63%     30.29 30.3      
Jan 15 14:53 Calm 8 Cloudy OVC060 54 39     57%     30.29 30.3      
Jan 15 13:53 E 5 7 Cloudy OVC060 53 39     59%     30.3 30.31      
Jan 15 12:53 NE 3 7 Cloudy OVC060 52 39     61%     30.33 30.35      
Jan 15 11:53 3 7 Cloudy FEW045 OVC060 51 39     63%     30.39 30.4      
Jan 15 10:53 ENE 5 7 Cloudy OVC050 48 40     73% 46   30.41 30.42      
Jan 15 09:53 E 6 7 Clear   47 39     74% 44   30.4 30.42      
Jan 15 08:53 E 3 7 Cloudy OVC065 46 39     76% 45   30.38 30.4      
May 14 04:53 ESE 3 10 Clear   72 72     100%   74 29.96 29.97      
May 12 17:53 SE 11 10 Partly Cloudy SCT040 86 71     61%   92 29.95 29.96      
May 12 04:37 SSE 5 10 Partly Cloudy SCT016 SCT040 74 73     97%   76 29.97        
May 12 01:53 6 10 Partly Cloudy SCT030 SCT250 75 73     94%   77 29.98 29.99      
May 11 16:53 SE 16 10 Partly Cloudy SCT042 84 69     61%   88 29.94 29.95      
May 11 07:53 SSE 6 10 Mostly Clear FEW020 74 72     94%   75 30 30.01      
Jun 12 04:53 ESE 5 10 Mostly Clear FEW050 78 76     93%   80 29.9 29.91      
Jun 11 21:53 ESE 6 10 Clear   81 75     82%   87 29.91 29.92      
Jun 11 12:53 6 10 Mostly Cloudy SCT031 BKN050 BKN070 86 74     67%   94 29.93 29.94      
Jun 08 18:53 NE 8 10 Clear   86 60     42%   86 29.85 29.87      
Jun 08 03:53 ENE 5 10 Clear CLR 74 61     64%   74 29.91 29.92      
Jun 05 22:53 Calm 10 Mostly Cloudy SCT024 BKN100 BKN250 73 71     94%   74 29.74 29.75 0